OneWeb SL0614

operational
NORAD ID: 55156 Int'l Des: 2023-004 Owner: ONEWEBN Country: UK Constellation: oneweb
LEOCIRCULARPOLARONEWEB_TYPE

About OneWeb SL0614

Description loading...

Live Position

Loading 3D Globe...

Upcoming Passes

Altitude History

Altitude vs Time

uPlot chart will show altitude changes over time

Two-Line Element Set

1 55156U 23004S 26036.54325201 .00000261 00000-0 69938-3 0 9997
2 55156 87.8822 47.2742 0002092 88.2024 271.9344 13.11418662148581
Epoch: Feb 5, 2026 • Age: 12 hours

Current Status

Altitude 1226.1 km
Velocity 7.25 km/s
Sub-Earth Point 57.69°N, 77.98°E
Launch Date Jan 10, 2023
Age 3 years
Type internet

Technical Details

Classification Payload
Mass 148.00 kg
Dry Mass 140.00 kg
Total Mass 148.00 kg
Length 1.30 m
Diameter 1.00 m
Span 5.00 m
Shape Trapezoid+2 pan
Manufacturer ONEWUS
Bus Type ARROW
Phase Status In Orbit
Owner/State ONEWEBN/UK

Large Constellations

Loading constellations...